Location: Belfast
(54.5830°N, 5.9330°W)
Time: 14:08:38
(UTC+01:00)

ISS - Pass Details

Date: 20 May 2017
Orbit: 402 x 408 km, 51.6° (Epoch: 26 May)

Event Time Altitude Azimuth Distance (km) Brightness Sun altitude
Exits shadow 02:48:12 18° 241° (WSW) 1,071 -2.1 -13.1°
Maximum altitude 02:50:21 48° 173° (S) 544 -3.6 -13.0°
Drops below altitude 10° 02:53:32 10° 98° (E) 1,466 -0.8 -12.8°
Sets 02:55:39 0° 92° (E) 2,325 0.3 -12.7°
